This is the latest recevied weather packets stored in our database for station/object W4SPD. If no packets are shown the sender has not sent any weather packets the latest 1 day(s).
| Time | Temp. | Humidity | Pressure | Rain* | Wind** | Luminosity | Snow |
|---|---|---|---|---|---|---|---|
| 1778002698 | 24.44° C | 44% | - | 0 mm | 0.45 m/s, 191° | - | - |
| 1778002394 | 25° C | 46% | - | 0 mm | 0.89 m/s, 137° | - | - |
| 1778002092 | 24.44° C | 43% | - | 0 mm | 0 m/s | - | - |
| 1778001789 | 24.44° C | 43% | - | 0 mm | 0.45 m/s, 250° | - | - |
| 1778001484 | 24.44° C | 42% | - | 0 mm | 0.89 m/s, 168° | - | - |
| 1778001181 | 24.44° C | 41% | - | 0 mm | 0.89 m/s, 142° | - | - |
| 1778000877 | 24.44° C | 42% | - | 0 mm | 0.45 m/s, 168° | - | - |
| 1778000575 | 23.89° C | 44% | - | 0 mm | 0.45 m/s, 206° | - | - |
| 1778000270 | 23.89° C | 43% | - | 0 mm | 0.89 m/s, 160° | - | - |
| 1777999966 | 24.44° C | 45% | - | 0 mm | 0.45 m/s, 159° | - | - |
| 1777999662 | 23.89° C | 43% | - | 0 mm | 0.89 m/s, 162° | - | - |
| 1777999359 | 24.44° C | 45% | - | 0 mm | 0 m/s | - | - |
| 1777999057 | 24.44° C | 45% | - | 0 mm | 0.45 m/s, 186° | - | - |
| 1777998756 | 24.44° C | 46% | - | 0 mm | 0.89 m/s, 202° | - | - |
| 1777998452 | 23.89° C | 44% | - | 0 mm | 0.89 m/s, 174° | - | - |
| 1777998149 | 23.89° C | 46% | - | 0 mm | 0.89 m/s, 152° | - | - |
| 1777997846 | 23.33° C | 44% | - | 0 mm | 0.45 m/s, 166° | - | - |
| 1777997544 | 23.89° C | 41% | - | 0 mm | 0 m/s | - | - |
| 1777997241 | 23.89° C | 45% | - | 0 mm | 1.34 m/s, 218° | - | - |
| 1777996939 | 23.33° C | 47% | - | 0 mm | 0.89 m/s, 177° | - | - |
| 1777996635 | 23.33° C | 48% | - | 0 mm | 1.34 m/s, 175° | - | - |
| 1777996331 | 22.78° C | 54% | - | 0 mm | 0.45 m/s, 184° | - | - |
| 1777996028 | 22.22° C | 55% | - | 0 mm | 0 m/s | - | - |
| 1777995724 | 22.22° C | 54% | - | 0 mm | 0.45 m/s, 194° | - | - |
| 1777995421 | 22.22° C | 53% | - | 0 mm | 0 m/s | - | - |
* Rain latest hour (hover to see other rain measurements)
** Current wind speed in m/s (hover to see current wind gust speed)